CW6617 Weather Reports


time (UTC)temp
F
wind
direction
speed
knots
gust
knots
rain 1hr
in
rain 24hr
in
rain mn
in
humidity
%
barometer
mb
20260508014704 46 87 0.9 2.6 0.00 0.00 0.00 91 1016.1
20260508014204 46 87 1.7 2.6 0.00 0.00 0.00 92 1016.1
20260508013703 46 88 0.9 1.7 0.00 0.00 0.00 92 1016.1
20260508013204 46 87 0.9 4.3 0.00 0.00 0.00 92 1016.1
20260508011704 46 96 0.9 4.3 0.00 0.00 0.00 91 1016.1
20260508011204 46 57 1.7 5.2 0.00 0.00 0.00 91 1016.1
20260508010704 46 103 0.9 1.7 0.00 0.00 0.00 91 1016.2
20260508004705 45 104 0.0 1.7 0.00 0.00 0.00 90 1016.3
20260508004203 46 104 0.0 0.9 0.00 0.00 0.00 90 1016.2
20260508003704 46 104 0.0 0.9 0.00 0.00 0.00 90 1016.3
20260508003204 46 104 0.0 0.9 0.00 0.00 0.00 90 1016.4
20260508000704 45 104 0.9 1.7 0.00 0.00 0.00 89 1016.4
20260508000205 45 103 0.0 2.6 0.00 0.00 0.00 89 1016.3
20260507234704 45 65 0.0 0.9 0.00 0.00 0.00 88 1016.5
20260507234204 45 65 0.0 0.0 0.00 0.00 0.00 87 1016.5
20260507233703 46 65 0.0 0.0 0.00 0.00 0.00 87 1016.5
20260507233204 46 65 0.0 0.9 0.00 0.00 0.00 87 1016.6
20260507231704 46 65 0.0 0.0 0.00 0.00 0.00 85 1016.6
20260507230704 47 65 0.0 0.0 0.00 0.00 0.00 85 1016.6
20260507230203 47 65 0.0 0.0 0.00 0.00 0.00 85 1016.7
20260507224704 47 65 0.0 0.0 0.00 0.00 0.00 84 1016.8
20260507224203 48 65 0.0 0.0 0.00 0.00 0.00 84 1016.8
20260507223704 48 65 0.0 0.0 0.00 0.00 0.00 84 1016.9
20260507223204 48 65 0.0 0.9 0.00 0.00 0.00 84 1016.8
20260507221704 48 62 1.7 4.3 0.00 0.00 0.00 84 1016.5
20260507221203 48 119 0.9 2.6 0.00 0.00 0.00 83 1016.4
20260507220704 48 148 0.9 2.6 0.00 0.00 0.00 83 1016.5
20260507220204 49 158 0.9 1.7 0.00 0.00 0.00 83 1016.6
20260507214704 49 158 0.0 0.0 0.00 0.00 0.00 82 1016.9
20260507213703 50 158 0.0 0.0 0.00 0.00 0.00 81 1016.9
20260507213204 50 158 0.0 0.0 0.00 0.00 0.00 81 1016.9
20260507211705 50 158 0.0 0.9 0.00 0.00 0.00 80 1016.8
20260507211204 51 158 0.9 1.7 0.00 0.00 0.00 80 1016.8
20260507210704 51 157 0.9 2.6 0.00 0.00 0.00 80 1016.7
20260507210204 51 157 0.9 1.7 0.00 0.00 0.00 79 1016.7
20260507204204 52 157 0.0 0.9 0.00 0.00 0.00 77 1016.4
20260507203703 52 157 0.0 0.0 0.00 0.00 0.00 77 1016.4
20260507203205 52 157 0.0 0.9 0.00 0.00 0.00 77 1016.4
20260507201203 53 157 0.0 0.0 0.00 0.00 0.00 75 1016.2
20260507200203 54 157 0.0 0.0 0.00 0.00 0.00 74 1016.1
20260507194703 54 157 0.0 0.9 0.00 0.00 0.00 73 1015.9
20260507193704 55 157 0.9 1.7 0.00 0.00 0.00 72 1015.8
20260507193203 55 157 0.0 2.6 0.00 0.00 0.00 72 1015.6
20260507191705 55 157 0.0 1.7 0.00 0.00 0.00 70 1015.5
20260507191204 55 159 1.7 5.2 0.00 0.00 0.00 70 1015.5
20260507190703 56 167 0.9 4.3 0.00 0.00 0.00 69 1015.4
20260507190204 56 168 2.6 7.0 0.00 0.00 0.00 70 1015.4
20260507184205 56 165 5.2 8.7 0.00 0.00 0.00 69 1015.5
20260507181703 58 173 3.5 11.3 0.00 0.00 0.00 68 1015.3
20260507181204 58 169 6.1 7.8 0.00 0.00 0.00 68 1015.3
20260507180704 58 162 5.2 11.3 0.00 0.00 0.00 68 1015.3
20260507180204 58 168 5.2 10.4 0.00 0.00 0.00 67 1015.2
20260507174704 58 171 2.6 8.7 0.00 0.00 0.00 65 1015.0
20260507174204 59 168 3.5 10.4 0.00 0.00 0.00 65 1015.1
20260507173703 59 166 2.6 7.8 0.00 0.00 0.00 64 1015.1
20260507173205 59 167 3.5 7.8 0.00 0.00 0.00 63 1015.1
20260507171203 59 169 0.9 6.1 0.00 0.00 0.00 61 1015.1
20260507170704 59 171 2.6 6.1 0.00 0.00 0.00 61 1015.1
20260507164704 59 165 4.3 7.8 0.00 0.00 0.00 60 1015.1
20260507164204 59 167 4.3 6.1 0.00 0.00 0.00 61 1015.2
20260507163704 59 182 4.3 8.7 0.00 0.00 0.00 61 1015.1
20260507161704 59 171 4.3 8.7 0.00 0.00 0.00 61 1015.1
20260507161203 59 170 6.1 11.3 0.00 0.00 0.00 62 1015.2
20260507160705 59 162 6.1 11.3 0.00 0.00 0.00 62 1015.2
20260507154203 60 167 6.1 10.4 0.00 0.00 0.00 62 1015.2
20260507153704 60 166 2.6 7.0 0.00 0.00 0.00 61 1015.2
20260507153204 61 159 4.3 12.2 0.00 0.00 0.00 61 1015.3
20260507151704 61 169 6.1 11.3 0.00 0.00 0.00 56 1015.2
20260507151203 61 155 1.7 7.0 0.00 0.00 0.00 52 1015.2
20260507150704 61 173 3.5 6.1 0.00 0.00 0.00 52 1015.1
20260507150204 61 82 0.0 5.2 0.00 0.00 0.00 51 1015.2
20260507144704 61 45 0.9 4.3 0.00 0.00 0.00 51 1015.2
20260507144204 62 161 1.7 6.1 0.00 0.00 0.00 51 1015.3
20260507143704 61 98 1.7 7.0 0.00 0.00 0.00 51 1015.3
20260507141204 61 116 2.6 7.0 0.00 0.00 0.00 51 1015.5
20260507140704 61 127 3.5 6.1 0.00 0.00 0.00 51 1015.5
20260507134704 60 105 1.7 7.0 0.00 0.00 0.00 51 1015.5
20260507134204 60 126 1.7 4.3 0.00 0.00 0.00 51 1015.5
20260507133703 60 103 0.9 4.3 0.00 0.00 0.00 51 1015.6
20260507133204 60 53 0.9 5.2 0.00 0.00 0.00 49 1015.5
20260507131704 61 15 1.7 4.3 0.00 0.00 0.00 49 1015.5
20260507131206 62 164 0.0 4.3 0.00 0.00 0.00 47 1015.6
20260507130203 62 166 1.7 6.1 0.00 0.00 0.00 47 1015.5
20260507124703 63 173 1.7 5.2 0.00 0.00 0.00 43 1015.6
20260507124203 64 200 1.7 5.2 0.00 0.00 0.00 45 1015.6
20260507123704 65 207 3.5 5.2 0.00 0.00 0.00 44 1015.6
20260507123204 64 185 2.6 6.1 0.00 0.00 0.00 47 1015.6
20260507121703 60 185 2.6 4.3 0.00 0.00 0.00 49 1015.7
20260507121204 60 149 0.9 1.7 0.00 0.00 0.00 48 1015.8
20260507120204 60 56 2.6 4.3 0.00 0.00 0.00 51 1015.8
20260507114704 58 312 1.7 5.2 0.00 0.00 0.00 51 1015.9
20260507113704 59 26 1.7 5.2 0.00 0.00 0.00 51 1015.9
20260507111704 60 71 0.9 2.6 0.00 0.00 0.00 52 1015.9
20260507111203 59 52 1.7 5.2 0.00 0.00 0.00 54 1016.0
20260507110704 59 65 4.3 7.0 0.00 0.00 0.00 52 1016.0
20260507110203 60 61 0.0 7.0 0.00 0.00 0.00 53 1016.1
20260507104704 62 45 1.7 5.2 0.00 0.00 0.00 52 1016.1
20260507103703 60 300 1.7 4.3 0.00 0.00 0.00 54 1016.1
20260507101204 61 311 1.7 5.2 0.00 0.00 0.00 56 1016.3
20260507100703 60 56 2.6 4.3 0.00 0.00 0.00 55 1016.2
20260507100204 61 155 4.3 7.0 0.00 0.00 0.00 58 1016.3
20260507094704 60 218 0.9 6.1 0.00 0.00 0.00 56 1016.3
20260507094204 60 189 4.3 6.1 0.00 0.00 0.00 60 1016.3
20260507093704 60 221 0.9 5.2 0.00 0.00 0.00 62 1016.2
20260507093204 60 172 0.9 5.2 0.00 0.00 0.00 62 1016.2
20260507091704 58 185 0.9 4.3 0.00 0.00 0.00 63 1016.3
20260507090703 58 187 4.3 6.1 0.00 0.00 0.00 68 1016.3
20260507090204 57 108 1.7 6.1 0.00 0.00 0.00 70 1016.3
20260507084704 56 159 0.9 4.3 0.00 0.00 0.00 76 1016.4
20260507084204 55 159 2.6 7.8 0.00 0.00 0.00 77 1016.4
20260507083704 55 155 2.6 7.8 0.00 0.00 0.00 80 1016.4
20260507083204 54 175 1.7 6.1 0.00 0.00 0.00 83 1016.3
20260507081704 51 171 1.7 6.1 0.00 0.00 0.00 89 1016.4
20260507081203 50 168 1.7 6.1 0.00 0.00 0.00 90 1016.4
20260507080704 50 173 3.5 6.1 0.00 0.00 0.00 92 1016.4
20260507080204 49 174 3.5 7.0 0.00 0.00 0.00 93 1016.3
20260507073704 47 165 2.6 5.2 0.00 0.00 0.00 95 1016.2
20260507073203 47 128 1.7 4.3 0.00 0.00 0.00 95 1016.3
20260507071704 46 105 0.9 4.3 0.00 0.00 0.00 95 1016.2
20260507071203 45 53 1.7 4.3 0.00 0.00 0.00 96 1016.2
20260507070704 44 16 1.7 4.3 0.00 0.00 0.00 95 1016.2
20260507070203 43 47 0.0 1.7 0.00 0.00 0.00 95 1016.2
20260507064703 42 45 0.0 0.0 0.00 0.00 0.00 94 1016.3
20260507064204 41 45 0.0 0.0 0.00 0.00 0.00 94 1016.2
20260507063704 41 45 0.0 0.0 0.00 0.00 0.00 94 1016.2
20260507063204 41 45 0.0 0.0 0.00 0.00 0.00 94 1016.2
20260507061203 39 46 0.0 0.0 0.00 0.00 0.00 93 1016.2
20260507060704 39 46 0.0 0.0 0.00 0.00 0.00 93 1016.1
20260507060203 38 46 0.0 0.0 0.00 0.00 0.00 93 1016.2
20260507054703 38 46 0.0 0.0 0.00 0.00 0.00 92 1016.1
20260507054204 37 46 0.0 0.0 0.00 0.00 0.00 92 1016.0
20260507053704 37 46 0.0 0.0 0.00 0.00 0.00 92 1016.0
20260507051704 37 46 0.0 0.0 0.00 0.00 0.00 91 1015.9
20260507051204 37 46 0.0 0.0 0.00 0.00 0.00 91 1015.8
20260507050204 37 46 0.0 0.0 0.00 0.00 0.00 91 1015.8
20260507044703 37 46 0.0 0.0 0.00 0.00 0.00 91 1015.7
20260507044204 37 46 0.0 0.0 0.00 0.00 0.00 91 1015.7
20260507043704 37 46 0.0 0.0 0.00 0.00 0.00 91 1015.7
20260507043204 38 46 0.0 0.0 0.00 0.00 0.00 91 1015.6
20260507041204 38 46 0.0 0.0 0.00 0.00 0.00 91 1015.7
20260507040704 38 46 0.0 0.0 0.00 0.00 0.00 91 1015.6
20260507040204 38 46 0.0 0.0 0.00 0.00 0.00 91 1015.6
20260507034704 39 46 0.0 0.0 0.00 0.00 0.00 91 1015.6
20260507034204 39 46 0.0 0.0 0.00 0.00 0.00 91 1015.6
20260507033703 39 46 0.0 0.0 0.00 0.00 0.00 90 1015.6
20260507033204 39 46 0.0 0.0 0.00 0.00 0.00 90 1015.6
20260507031704 39 46 0.0 0.0 0.00 0.00 0.00 91 1015.6
20260507031203 39 46 0.0 0.0 0.00 0.00 0.00 91 1015.6
20260507030703 39 46 0.0 0.0 0.00 0.00 0.00 90 1015.6
20260507030204 40 46 0.0 0.0 0.00 0.00 0.00 90 1015.6
20260507024703 40 46 0.0 0.0 0.00 0.00 0.00 90 1015.6
20260507023205 40 46 0.0 0.0 0.00 0.00 0.00 90 1015.5
20260507021704 40 46 0.0 0.0 0.00 0.00 0.00 89 1015.6
20260507021204 40 46 0.0 0.0 0.00 0.00 0.00 89 1015.6
20260507020703 40 46 0.0 0.0 0.00 0.00 0.00 89 1015.5